Other Public Products
Issued by NWS Grand Forks, ND

Home | Current Version | Previous Version | Text Only | Print | Product List | Glossary Off
Versions: 1 2 3 4 5 6 7 8 9 10 11 12 13 14 15 16 17 18 19 20 21 22 23 24 25 26 27 28 29 30 31 32 33 34 35 36 37 38 39 40 41 42 43 44 45 46 47 48 49 50

000
FPUS83 KFGF 231910
OPUFGF
PRAIRIE TO PINES WEATHER ROUNDUP
NATIONAL WEATHER SERVICE EASTERN NORTH DAKOTA/GRAND FORKS ND
200 PM CDT TUE MAY 23 2017

 **SATELLITE DATA USED TO AUGMENT SKY COVER AT AUTOMATED STATIONS**
 *****  WEATHER ACROSS EASTERN NORTH DAKOTA  *****

CITY           SKY/WX    TMP DP  RH WIND       PRES   REMARKS
GRAND FORKS    PTSUNNY   62  45  53 NE18      29.99F
GRAND FORKS AF CLOUDY    60  43  54 NE13      30.00F
GRAND CITY NWS NOT AVBL
BUXTON         NOT AVBL
DEVILS LAKE    PTSUNNY   61  40  45 NE25      30.04F
FARGO          CLOUDY    54  46  74 N16G25    29.95F
WAHPETON ARPT  CLOUDY    54  45  71 N15G24    29.92S
$$

 *****  WEATHER ACROSS CENTRAL AND WESTERN NORTH DAKOTA  *****

CITY           SKY/WX    TMP DP  RH WIND       PRES   REMARKS
JAMESTOWN      CLOUDY    55  43  63 NE20G25   30.01F
BISMARCK       PTSUNNY   63  35  35 NE20G29   30.07F
MINOT          FAIR      66  33  29 N9G22     30.08F
MINOT AFB      FAIR      66  32  28 NE13G18   30.07F
GARRISON         N/A     62  34  35 NE13G24   30.08F
WILLISTON      FAIR      70  32  24 E6        30.10F
DICKINSON      FAIR      62  33  33 N15G29    30.10F
HETTINGER      PTSUNNY   63  33  32 NE18      30.12F
$$

 *****  OTHER OBSERVATIONS NORTHEAST NORTH DAKOTA  *****

CITY           SKY/WX    TMP DP  RH WIND       PRES   REMARKS
WALHALLA       NOT AVBL
LANGDON        MOCLDY    59  41  51 NE21G29   30.05S
CAVALIER         N/A     61  43  51 NE14G23   30.02F
GRAFTON        CLOUDY    59  43  55 NE15G24   30.02F
CANDO          NOT AVBL
FORT TOTTEN      N/A     60  40  47 NE8       29.95S
ROLLA          FAIR      64  32  29 N17G24    30.07F
RUGBY          NOT AVBL
 ***** THE ABOVE OBSERVATIONS ARE NON NWS ARE NOT QUALITY
        CONTROLLED AND MAY MIS-REPORT RAIN FOR SNOW...
$$

 *****  OTHER OBSERVATIONS SOUTHEAST NORTH DAKOTA *****

CITY           SKY/WX    TMP DP  RH WIND       PRES   REMARKS
COOPERSTOWN    CLOUDY    55  43  62 NE20G31   30.01F
VALLEY CITY    CLOUDY    52  46  82 N18G25    30.01S
OAKES          NOT AVBL
GWINNER        CLOUDY    52  48  87 MISG      29.96F
SHEYENNE NWR     N/A     51  45  80 N9        29.95S
BUFFALO        NOT AVBL
WYNDMERE         N/A     54  46  76 N16         N/A
 ***** THE ABOVE OBSERVATIONS ARE NON NWS ARE NOT QUALITY
       CONTROLLED AND MAY MIS-REPORT RAIN FOR SNOW...
$$

  *****  WEATHER ACROSS NORTHERN MINNESOTA  *****

CITY           SKY/WX    TMP DP  RH WIND       PRES   REMARKS
FLAG ISLAND    FAIR      57  39  51 NE17G23   29.99F
WARROAD        FAIR     N/A N/A N/A NE13G20   30.01S
ROSEAU         FAIR      63  45  51 E22G28    29.99S
HALLOCK        CLOUDY    63  37  39 NE20G25   30.00F
THF RVR FALLS  CLOUDY    55  42  61 NE18G28   29.98F
HALSTAD          N/A     54  45  71 NE21        N/A
FOSSTON        CLOUDY    48  48 100 NE12      29.97S
BAUDETTE       CLOUDY    55  42  61 NE16G25   29.97F
WASKISH        CLOUDY    52  45  76 NE12      29.96F
CROOKSTON      PTSUNNY   57  45  62 NE14G21   29.98F
$$
  *****  WEATHER ACROSS CENTRAL AND WEST MINNESOTA  *****

CITY           SKY/WX    TMP DP  RH WIND       PRES   REMARKS
BEMIDJI        CLOUDY    49  45  87 N10       29.94S
PARK RAPIDS    LGT RAIN  55  43  63 NE13G18   29.90S
WADENA         FAIR      55  45  67 NE7       29.88F
DETROIT LAKES  CLOUDY    52  45  76 N8        29.93S
MOORHEAD       PTSUNNY   52  46  82 N16       29.96S
FERGUS FALLS   DRIZZLE   54  50  87 NE8G16    29.89S
ELBOW LAKE     MOCLDY    55  45  67 NE9       29.89S
MORRIS MN      FAIR      57  48  72 N16       29.86F
STAPLES        PTSUNNY   55  39  54 NE10G16   29.88S
WHEATON        FAIR      55  48  76 N20G26    29.92S
$$
  *****  WEATHER ELSEWHERE ACROSS MINNESOTA  *****

CITY           SKY/WX    TMP DP  RH WIND       PRES   REMARKS
DULUTH         CLOUDY    54  46  74 E10       29.87S
INTRNTL FALLS  CLOUDY    52  43  71 N9        29.95F
ELY            CLOUDY    48  46  93 NE6       29.91R
CLOQUET        CLOUDY    54  43  66 E8        29.86F
BRAINERD       CLOUDY    56  42  59 N12       29.87F
HIBBING        CLOUDY    56  48  74 N14       29.88S
ALEXANDRIA     CLOUDY    56  44  64 NE14      29.87F
SAINT CLOUD    LGT RAIN  53  49  86 N8        29.84S
MINNEAPOLIS    CLOUDY    60  42  51 NE13G22   29.80F
$$

  *****  WEATHER ACROSS SOUTH DAKOTA  *****

CITY           SKY/WX    TMP DP  RH WIND       PRES   REMARKS
SIOUX FALLS    CLOUDY    56  47  71 N16       29.86F
BROOKINGS      LGT RAIN  50  45  83 N20       29.88S
WATERTOWN      CLOUDY    52  45  77 N22G30    29.89S
HURON          CLOUDY    55  45  68 N22       29.94F
SISSETON         N/A     51  49  92 N18       29.91F
ABERDEEN       CLOUDY    52  42  69 N22G31    29.99S
MITCHELL       CLOUDY    53  47  79 N26G33    29.94F
PIERRE         LGT RAIN  58  39  49 N21G31    30.01F
MOBRIDGE       CLOUDY    55  37  50 N17G25    30.03F
RAPID CITY     CLOUDY    59  35  40 N17G28    30.10F
$$

  *****  SOME WEATHER IN NEARBY STATES *****

CITY           SKY/WX    TMP DP  RH WIND       PRES   REMARKS
GLASGOW MT     FAIR      70  26  19 SE12G20   30.06F
GREAT FALLS MT FAIR      76  42  29 SW10      29.99F
CHEYENNE WY    CLOUDY    50  32  50 N20G28    30.18F
SCOTTSBLUFF NE CLOUDY    59  32  36 N18G24    30.11F
OMAHA NE       CLOUDY    58  42  55 N17       29.85F
DES MOINES IA  CLOUDY    60  45  57 NW16      29.78F
DAVENPORT IA   LGT RAIN  58  52  80 NW10      29.75S
CHICAGO IL     LGT RAIN  62  54  74 S5        29.74F
EAU CLAIRE WI  CLOUDY    57  48  72 N13       29.77F
LA CROSSE WI   LGT RAIN  59  51  75 N7        29.73F
$$

  *****  SOME NATIONAL WEATHER *****

CITY           SKY/WX    TMP DP  RH WIND       PRES   REMARKS
LA GUARDIA NY  CLOUDY    69  47  45 CALM      29.89F
RALEIGH NC     RAIN      69  67  93 E7        29.76F FOG
ATLANTA GA     PTSUNNY   70  65  84 S8        29.75R
NEW ORLEANS LA PTSUNNY   82  69  64 W9G17     29.76F
OKLAHOMA CITY  PTSUNNY   64  50  60 N15G22    29.95F
ALBUQUERQUE NM FAIR      70  37  29 E7        30.12F
SALT LAKE CITY PTSUNNY   78  41  26 VRB5      30.14F
LOS ANGELES CA CLOUDY    62  58  86 W17       29.98R FOG
BOISE ID       FAIR      79  41  25 VRB3      30.08F
SEATTLE WA     FAIR      72  56  57 SW7       30.00S
$$

*** WEATHER ACROSS MANITOBA...SASKATCHEWAN AND ONTARIO ***
                ***ONTARIO***

CITY           SKY/WX    TMP DP  RH WIND       PRES   REMARKS
GERALDTON      CLOUDY    50  43  76 N8        29.93S
THUNDER BAY    CLOUDY    55  45  67 NE8       29.90F
SIOUX LOOKOUT  PTSUNNY   59  39  47 E6        29.97F
TORONTO        PTSUNNY   72  50  46 W3        29.81F
BIG TROUT LK   SUNNY     52  25  35 SW9       30.07F
PICKLE LAKE    MOSUNNY   57  27  30 N8        30.00F
DRYDEN         MOSUNNY   59  41  51 NE13G20   29.99F
KENORA         PTSUNNY   61  36  39 NE20G26   29.99F
$$
                *** MANITOBA***

CITY           SKY/WX    TMP DP  RH WIND       PRES   REMARKS
BRANDON        MOSUNNY   66  34  30 NE10G20   30.07F
DAUPHIN        SUNNY     70  34  26 VRB12     30.04F
ISLAND LAKE    MOSUNNY   66  30  26 SW3       30.05F
PILOT MOUND      N/A     63  34  34 NE14G29     N/A
THE PAS        PTSUNNY   72  30  21 MISG      29.94F
THOMPSON       PTSUNNY   68  30  24 S12G22    29.93F
WINNIPEG       MOSUNNY   64  37  36 N15G25    30.04F
LYNN LAKE      CLOUDY    64  39  39 S7        29.81F
CHURCHILL      PTSUNNY   48  37  66 S15       29.92F
$$
                ***SASKATCHEWAN***

CITY           SKY/WX    TMP DP  RH WIND       PRES   REMARKS
ESTEVAN        MOSUNNY   66  32  28 S5        30.08F
KINDERSLEY     PTSUNNY   75  32  20 S23G31    29.87F
LLOYDMINSTER   PTSUNNY   77  41  27 S26G36    29.75F
PRINCE ALBERT  CLOUDY    72  34  25 S14G26    29.89F
REGINA         PTSUNNY   72  28  20 SW7G18    30.01F
YORKTON          N/A     68  32  26 S7        30.03F
N. BATTLEFORD  PTSUNNY   72  32  23 S20       29.87F



USA.gov is the U.S. government's official web portal to all federal, state and local government web resources and services.